Погода в Беягаче

Турция     37°14′14″N   28°54′10″E
темп.,
°C
ветер,
м/с
пор.,
м/с
влажн.,
%
обл.,
%
осадки,
мм/ч
давл.,
гПа
погр.,
м
22 января, сб
сб2200:00+1ююв34100100 0.6 1019128
03:00+1ю35100100 0.7 1017178
06:00+2ююз3499100 0.8 1014140
09:00+1ююз13100100 10.2 1014219
12:00+2ююз3599100 8.4 1013321
15:00+2зюз4899100 13.1 1010550
18:000ююз35100100 4.1 1009242
21:000зюз2398100 5.9 1010162
23 января, вс
вс2300:00−1з2399100 1.0 1010116
03:00−4сз449895 1.9 1011254
06:00−8ссз589495 1.4 1014673
09:00−10ссз469350 1.8 1017424
12:00−6с457199 0.1 10181072
15:00−5с346663 0.1 10161110
18:00−8с348479 0.1 1019165
21:00−11с339430 0.1 102335
24 января, пн
пн2400:00−12св229423 0.0 102424
03:00−13св329211 0.0 102523
06:00−13всв229313 0.0 102622
09:00−12в338711 0.0 102645
12:00−5вюв22565 0.0 1022405
15:00−2ююв2347100 0.0 10201077
18:00−4вюв2371100 0.2 1018234
21:00−6всв2395100 1.4 1019242
25 января, вт
вт2500:00−7всв3496100 2.1 1019235
03:00−6св229656 7.0 1019139
06:00−12всв2294100 0.0 102115
09:00−8св2291100 0.0 102042
12:00−4с3286100 0.0 1018515
15:00−4с3381100 0.1 1017724
18:00−7с3490100 0.1 101992
21:00−9ссв3492100 0.1 102065
26 января, ср
ср2600:00−9ссв3494100 0.0 101975
03:00−10с3495100 0.1 1018138
06:00−10с359595 0.3 1018283
09:00−11с469561 0.4 1018286
12:00−7с587789 0.0 1018896
15:00−5с577384 0.1 1017998
18:00−9с34885 0.0 102056
21:00−11св449111 0.0 102342